Weather History for Guymon, OK

Change the Weather History Date:

Wednesday, May 22, 2013

  Actual Average Record
Temperature  
Mean Temperature 68 °F 67 °F  
Max Temperature 89 °F 81 °F 95 °F (2012)
Min Temperature 46 °F 53 °F 44 °F (2001)
Degree Days  
Heating Degree Days 0 2  
Month to date heating degree days 97 83  
Since 1 July heating degree days 4310 4436  
Cooling Degree Days 3 4  
Month to date cooling degree days 78 52  
Year to date cooling degree days 103 67  
Growing Degree Days 17 (Base 50)    
Moisture  
Dew Point 39 °F    
Average Humidity 41    
Maximum Humidity 65    
Minimum Humidity 17    
Precipitation  
Precipitation 0.00 in 0.09 in 0.96 in (2014)
Month to date precipitation 0.14 1.48  
Year to date precipitation 2.33 5.29  
Snow  
Snow 0.00 in - - ()
Month to date snowfall 0.3  
Since 1 July snowfall 22.3  
Snow Depth 0.00 in    
Sea Level Pressure  
Sea Level Pressure 29.79 in    
Wind  
Wind Speed 9 mph (ESE)    
Max Wind Speed 18 mph    
Max Gust Speed 25 mph    
Visibility 10 miles    
Events      
T = Trace of Precipitation, MM = Missing Value Source: NWS Daily Summary

Daily Weather History Graph

Daily Weather History Graph

Search for Another Location

Airport:

Trip Planner

Search our weather history database for the weather conditions in past years. The results will help you decide how hot, cold, wet, or windy it might be!

Date:

Astronomy

May. 22, 2013 Rise Set
Actual Time 6:33 AM CDT 8:52 PM CDT
Civil Twilight 6:04 AM CDT 9:21 PM CDT
Nautical Twilight 5:27 AM CDT 9:58 PM CDT
Astronomical Twilight 4:48 AM CDT 10:37 PM CDT
Moon 6:20 PM CDT (5/22) 4:34 AM CDT (5/22)
Length of Visible Light 15h 17m
Length of Day
14h 18m
Waxing Gibbous, 91% of the Moon is Illuminated
May 22
Waxing Gibbous
May 24
Full
May 31
Last Quarter
Jun 8
New
Jun 16
First Quarter

Hourly Weather History & Observations

Time (CDT) Temp. Dew Point Humidity Pressure Visibility Wind Dir Wind Speed Gust Speed Precip Events Conditions
12:53 AM 57.0 °F 30.9 °F 37% 29.81 in 10.0 mi NW 3.5 mph - N/A   Clear
1:53 AM 60.1 °F 34.0 °F 38% 29.83 in 10.0 mi ENE 9.2 mph - N/A   Clear
2:53 AM 57.0 °F 35.1 °F 44% 29.81 in 10.0 mi NE 6.9 mph - N/A   Clear
3:53 AM 52.0 °F 35.1 °F 53% 29.81 in 10.0 mi NNE 4.6 mph - N/A   Clear
4:53 AM 51.1 °F 36.0 °F 56% 29.83 in 10.0 mi NNW 4.6 mph - N/A   Clear
5:53 AM 50.0 °F 37.0 °F 61% 29.83 in 10.0 mi NNW 3.5 mph - N/A   Clear
6:53 AM 46.9 °F 36.0 °F 66% 29.86 in 10.0 mi WSW 4.6 mph - N/A   Clear
7:53 AM 55.0 °F 37.9 °F 53% 29.87 in 10.0 mi Calm Calm - N/A   Clear
8:53 AM 59.0 °F 39.9 °F 49% 29.88 in 10.0 mi ESE 5.8 mph - N/A   Clear
9:53 AM 62.1 °F 41.0 °F 46% 29.88 in 10.0 mi East 8.1 mph - N/A   Clear
10:53 AM 66.9 °F 41.0 °F 39% 29.87 in 10.0 mi East 10.4 mph - N/A   Clear
11:53 AM 72.0 °F 39.9 °F 31% 29.86 in 10.0 mi SE 9.2 mph 18.4 mph N/A   Clear
12:53 PM 75.0 °F 39.9 °F 28% 29.84 in 10.0 mi South 8.1 mph - N/A   Clear
1:53 PM 78.1 °F 42.1 °F 28% 29.80 in 10.0 mi SE 10.4 mph 19.6 mph N/A   Clear
2:53 PM 82.9 °F 43.0 °F 24% 29.75 in 10.0 mi SE 11.5 mph 21.9 mph N/A   Clear
3:53 PM 84.9 °F 44.1 °F 24% 29.74 in 10.0 mi SSE 11.5 mph 23.0 mph N/A   Clear
4:53 PM 87.1 °F 44.1 °F 22% 29.71 in 10.0 mi SSE 12.7 mph 21.9 mph N/A   Clear
5:53 PM 87.1 °F 37.9 °F 18% 29.69 in 10.0 mi South 8.1 mph 16.1 mph N/A   Clear
6:53 PM 88.0 °F 37.9 °F 17% 29.68 in 10.0 mi SSE 5.8 mph 16.1 mph N/A   Clear
7:53 PM 86.0 °F 39.9 °F 20% 29.68 in 10.0 mi SE 9.2 mph - N/A   Clear
8:53 PM 80.1 °F 42.1 °F 26% 29.71 in 10.0 mi ESE 12.7 mph - N/A   Clear
9:53 PM 77.0 °F 42.1 °F 29% 29.73 in 10.0 mi ESE 13.8 mph - N/A   Clear
10:53 PM 73.9 °F 41.0 °F 30% 29.75 in 10.0 mi ESE 13.8 mph - N/A   Clear
11:53 PM 71.1 °F 42.1 °F 35% 29.78 in 10.0 mi East 16.1 mph 21.9 mph N/A   Clear